Time,TemperatureF,DewpointF,PressureIn,WindDirection,WindDirectionDegrees,WindSpeedMPH,WindSpeedGustMPH,Humidity,HourlyPrecipIn,Conditions,Clouds,dailyrainin,SolarRadiationWatts/m^2,SoftwareType,DateUTC
2013-02-22 00:04:00,48.3,42.0,30.20,West,266,0.0,0.0,80,0.00,,,0.00,0,weatherlink.com 1.10,2013-02-22 08:04:00,
2013-02-22 00:19:00,48.4,43.0,30.21,West,266,0.0,0.0,80,0.00,,,0.00,0,weatherlink.com 1.10,2013-02-22 08:19:00,
2013-02-22 00:34:00,48.1,43.0,30.21,West,266,0.0,0.0,81,0.00,,,0.00,0,weatherlink.com 1.10,2013-02-22 08:34:00,
2013-02-22 00:49:00,48.1,43.0,30.22,West,266,0.0,0.0,83,0.00,,,0.00,0,weatherlink.com 1.10,2013-02-22 08:49:00,
2013-02-22 01:04:00,48.1,43.0,30.22,West,266,1.0,3.0,83,0.00,,,0.00,0,weatherlink.com 1.10,2013-02-22 09:04:00,
2013-02-22 01:19:00,47.2,43.0,30.22,West,266,0.0,1.0,86,0.00,,,0.00,0,weatherlink.com 1.10,2013-02-22 09:19:00,
2013-02-22 01:34:00,46.9,43.0,30.22,West,266,0.0,0.0,87,0.00,,,0.00,0,weatherlink.com 1.10,2013-02-22 09:34:00,
2013-02-22 01:49:00,46.9,44.0,30.22,West,266,0.0,1.0,88,0.00,,,0.00,0,weatherlink.com 1.10,2013-02-22 09:49:00,
2013-02-22 02:04:00,46.9,44.0,30.22,West,266,0.0,1.0,89,0.00,,,0.00,0,weatherlink.com 1.10,2013-02-22 10:04:00,
2013-02-22 02:19:00,47.1,44.0,30.22,West,266,0.0,1.0,89,0.00,,,0.00,0,weatherlink.com 1.10,2013-02-22 10:19:00,
2013-02-22 02:34:00,47.2,44.0,30.21,West,266,0.0,0.0,89,0.00,,,0.00,0,weatherlink.com 1.10,2013-02-22 10:34:00,
2013-02-22 02:49:00,47.0,44.0,30.21,West,266,0.0,0.0,88,0.00,,,0.00,0,weatherlink.com 1.10,2013-02-22 10:49:00,
2013-02-22 03:04:00,46.0,42.0,30.21,West,266,0.0,1.0,86,0.00,,,0.00,0,weatherlink.com 1.10,2013-02-22 11:04:00,
2013-02-22 03:19:00,45.9,42.0,30.22,West,266,0.0,0.0,85,0.00,,,0.00,0,weatherlink.com 1.10,2013-02-22 11:19:00,
2013-02-22 03:34:00,46.1,42.0,30.21,West,266,0.0,0.0,84,0.00,,,0.00,0,weatherlink.com 1.10,2013-02-22 11:34:00,
2013-02-22 03:49:00,46.1,42.0,30.22,West,266,0.0,0.0,85,0.00,,,0.00,0,weatherlink.com 1.10,2013-02-22 11:49:00,
2013-02-22 04:04:00,46.2,43.0,30.23,West,266,0.0,0.0,87,0.00,,,0.00,0,weatherlink.com 1.10,2013-02-22 12:04:00,
2013-02-22 04:19:00,46.7,43.0,30.23,West,266,0.0,0.0,87,0.00,,,0.00,0,weatherlink.com 1.10,2013-02-22 12:19:00,
2013-02-22 04:34:00,46.3,43.0,30.23,West,266,0.0,0.0,87,0.00,,,0.00,0,weatherlink.com 1.10,2013-02-22 12:34:00,
2013-02-22 04:49:00,45.7,42.0,30.23,West,266,0.0,0.0,86,0.00,,,0.00,0,weatherlink.com 1.10,2013-02-22 12:49:00,
2013-02-22 05:04:00,45.8,42.0,30.23,West,266,0.0,0.0,87,0.00,,,0.00,0,weatherlink.com 1.10,2013-02-22 13:04:00,
2013-02-22 05:19:00,46.0,42.0,30.24,West,266,0.0,0.0,87,0.00,,,0.00,0,weatherlink.com 1.10,2013-02-22 13:19:00,
2013-02-22 05:35:00,45.8,42.0,30.24,West,266,0.0,0.0,87,0.00,,,0.00,0,weatherlink.com 1.10,2013-02-22 13:35:00,
2013-02-22 05:49:00,45.9,42.0,30.25,West,266,0.0,0.0,87,0.00,,,0.00,0,weatherlink.com 1.10,2013-02-22 13:49:00,
2013-02-22 06:04:00,45.9,42.0,30.25,West,266,0.0,0.0,87,0.00,,,0.00,0,weatherlink.com 1.10,2013-02-22 14:04:00,
2013-02-22 06:20:00,45.7,42.0,30.25,West,266,0.0,2.0,87,0.00,,,0.00,0,weatherlink.com 1.10,2013-02-22 14:20:00,
2013-02-22 06:34:00,45.4,42.0,30.25,West,266,0.0,0.0,87,0.00,,,0.00,0,weatherlink.com 1.10,2013-02-22 14:34:00,
2013-02-22 06:49:00,45.4,42.0,30.25,West,266,0.0,1.0,87,0.00,,,0.00,0,weatherlink.com 1.10,2013-02-22 14:49:00,
2013-02-22 07:05:00,45.5,42.0,30.25,West,266,0.0,0.0,87,0.00,,,0.00,14,weatherlink.com 1.10,2013-02-22 15:05:00,
2013-02-22 07:20:00,46.0,43.0,30.26,West,266,0.0,0.0,88,0.00,,,0.00,35,weatherlink.com 1.10,2013-02-22 15:20:00,
2013-02-22 07:34:00,47.1,44.0,30.27,ESE,107,0.0,3.0,87,0.00,,,0.00,72,weatherlink.com 1.10,2013-02-22 15:34:00,
2013-02-22 07:50:00,47.7,44.0,30.27,SE,134,1.0,3.0,87,0.00,,,0.00,121,weatherlink.com 1.10,2013-02-22 15:50:00,
2013-02-22 08:05:00,47.9,44.0,30.27,East,98,3.0,4.0,86,0.00,,,0.00,169,weatherlink.com 1.10,2013-02-22 16:05:00,
2013-02-22 08:20:00,48.3,44.0,30.27,ESE,120,0.0,3.0,86,0.00,,,0.00,213,weatherlink.com 1.10,2013-02-22 16:20:00,
2013-02-22 08:35:00,49.0,44.0,30.28,SE,124,2.0,3.0,84,0.00,,,0.00,265,weatherlink.com 1.10,2013-02-22 16:35:00,
2013-02-22 08:50:00,49.9,45.0,30.29,SE,135,0.0,4.0,83,0.00,,,0.00,309,weatherlink.com 1.10,2013-02-22 16:50:00,
2013-02-22 09:05:00,50.7,45.0,30.29,SW,221,1.0,3.0,80,0.00,,,0.00,355,weatherlink.com 1.10,2013-02-22 17:05:00,
2013-02-22 09:20:00,52.0,46.0,30.29,ESE,104,0.0,3.0,79,0.00,,,0.00,367,weatherlink.com 1.10,2013-02-22 17:20:00,
2013-02-22 09:35:00,52.9,46.0,30.29,ENE,60,0.0,3.0,76,0.00,,,0.00,446,weatherlink.com 1.10,2013-02-22 17:35:00,
2013-02-22 09:50:00,53.5,46.0,30.29,ESE,102,0.0,4.0,75,0.00,,,0.00,485,weatherlink.com 1.10,2013-02-22 17:50:00,
2013-02-22 10:05:00,54.4,46.0,30.29,East,101,3.0,6.0,72,0.00,,,0.00,496,weatherlink.com 1.10,2013-02-22 18:05:00,
2013-02-22 10:20:00,54.9,45.0,30.30,SE,137,2.0,4.0,70,0.00,,,0.00,513,weatherlink.com 1.10,2013-02-22 18:20:00,
2013-02-22 10:35:00,55.0,45.0,30.30,ESE,116,1.0,3.0,70,0.00,,,0.00,548,weatherlink.com 1.10,2013-02-22 18:35:00,
2013-02-22 10:50:00,57.0,45.0,30.30,SE,128,1.0,5.0,65,0.00,,,0.00,591,weatherlink.com 1.10,2013-02-22 18:50:00,
2013-02-22 11:05:00,58.2,45.0,30.29,ESE,115,1.0,3.0,63,0.00,,,0.00,619,weatherlink.com 1.10,2013-02-22 19:05:00,
2013-02-22 11:20:00,60.8,46.0,30.29,East,81,0.0,3.0,58,0.00,,,0.00,635,weatherlink.com 1.10,2013-02-22 19:20:00,
2013-02-22 11:35:00,59.9,45.0,30.29,ENE,69,5.0,5.0,59,0.00,,,0.00,633,weatherlink.com 1.10,2013-02-22 19:35:00,
2013-02-22 11:50:00,60.1,45.0,30.29,ESE,119,0.0,5.0,57,0.00,,,0.00,661,weatherlink.com 1.10,2013-02-22 19:50:00,
2013-02-22 12:05:00,60.3,43.0,30.29,SW,226,2.0,7.0,53,0.00,,,0.00,661,weatherlink.com 1.10,2013-02-22 20:05:00,
2013-02-22 12:21:00,60.1,42.0,30.29,WSW,245,5.0,9.0,51,0.00,,,0.00,673,weatherlink.com 1.10,2013-02-22 20:21:00,
2013-02-22 12:35:00,59.3,41.0,30.29,SSW,198,4.0,10.0,52,0.00,,,0.00,675,weatherlink.com 1.10,2013-02-22 20:35:00,
2013-02-22 12:51:00,58.7,41.0,30.28,WSW,252,4.0,8.0,53,0.00,,,0.00,671,weatherlink.com 1.10,2013-02-22 20:51:00,
2013-02-22 13:05:00,59.5,39.0,30.27,West,281,6.0,8.0,47,0.00,,,0.00,670,weatherlink.com 1.10,2013-02-22 21:05:00,
2013-02-22 13:20:00,60.0,38.0,30.26,West,270,4.0,10.0,45,0.00,,,0.00,661,weatherlink.com 1.10,2013-02-22 21:20:00,
2013-02-22 13:36:00,60.2,37.0,30.26,SSW,198,5.0,10.0,43,0.00,,,0.00,645,weatherlink.com 1.10,2013-02-22 21:36:00,
2013-02-22 13:51:00,60.3,38.0,30.25,SSW,203,4.0,9.0,44,0.00,,,0.00,624,weatherlink.com 1.10,2013-02-22 21:51:00,
2013-02-22 14:06:00,60.0,40.0,30.25,SW,220,5.0,8.0,48,0.00,,,0.00,603,weatherlink.com 1.10,2013-02-22 22:06:00,
2013-02-22 14:21:00,57.7,40.0,30.25,SSW,193,9.0,11.0,53,0.00,,,0.00,577,weatherlink.com 1.10,2013-02-22 22:21:00,
2013-02-22 14:36:00,56.4,42.0,30.25,North,355,4.0,12.0,59,0.00,,,0.00,543,weatherlink.com 1.10,2013-02-22 22:36:00,
2013-02-22 14:51:00,56.2,41.0,30.25,NW,322,7.0,12.0,57,0.00,,,0.00,515,weatherlink.com 1.10,2013-02-22 22:51:00,
2013-02-22 15:06:00,57.0,41.0,30.24,NNW,337,7.0,11.0,56,0.00,,,0.00,478,weatherlink.com 1.10,2013-02-22 23:06:00,
2013-02-22 15:21:00,56.7,42.0,30.24,WSW,248,7.0,9.0,58,0.00,,,0.00,438,weatherlink.com 1.10,2013-02-22 23:21:00,
2013-02-22 15:36:00,55.5,44.0,30.25,WSW,242,4.0,12.0,65,0.00,,,0.00,401,weatherlink.com 1.10,2013-02-22 23:36:00,
2013-02-22 15:51:00,54.3,44.0,30.24,WSW,245,0.0,17.0,69,0.00,,,0.00,352,weatherlink.com 1.10,2013-02-22 23:51:00,
2013-02-22 16:06:00,53.3,44.0,30.25,SW,229,8.0,17.0,70,0.00,,,0.00,299,weatherlink.com 1.10,2013-02-23 00:06:00,
2013-02-22 16:21:00,53.7,44.0,30.24,SW,214,3.0,11.0,71,0.00,,,0.00,246,weatherlink.com 1.10,2013-02-23 00:21:00,
2013-02-22 16:36:00,52.8,44.0,30.24,WNW,294,5.0,17.0,73,0.00,,,0.00,206,weatherlink.com 1.10,2013-02-23 00:36:00,
2013-02-22 16:51:00,52.6,45.0,30.24,SW,225,7.0,13.0,74,0.00,,,0.00,149,weatherlink.com 1.10,2013-02-23 00:51:00,
2013-02-22 17:06:00,52.7,45.0,30.23,WNW,284,5.0,11.0,74,0.00,,,0.00,60,weatherlink.com 1.10,2013-02-23 01:06:00,
2013-02-22 17:21:00,52.4,45.0,30.23,SW,219,0.0,9.0,76,0.00,,,0.00,47,weatherlink.com 1.10,2013-02-23 01:21:00,
2013-02-22 17:36:00,51.9,45.0,30.23,WSW,239,2.0,7.0,77,0.00,,,0.00,33,weatherlink.com 1.10,2013-02-23 01:36:00,
2013-02-22 17:51:00,51.4,45.0,30.23,WSW,256,6.0,16.0,78,0.00,,,0.00,11,weatherlink.com 1.10,2013-02-23 01:51:00,
2013-02-22 18:06:00,50.7,45.0,30.23,SW,229,4.0,13.0,80,0.00,,,0.00,0,weatherlink.com 1.10,2013-02-23 02:06:00,
2013-02-22 18:21:00,50.2,45.0,30.23,SW,220,5.0,14.0,81,0.00,,,0.00,0,weatherlink.com 1.10,2013-02-23 02:21:00,
2013-02-22 18:36:00,50.0,45.0,30.23,WNW,285,8.0,11.0,82,0.00,,,0.00,0,weatherlink.com 1.10,2013-02-23 02:36:00,
2013-02-22 18:51:00,49.9,45.0,30.24,WSW,242,5.0,16.0,82,0.00,,,0.00,0,weatherlink.com 1.10,2013-02-23 02:51:00,
2013-02-22 19:06:00,49.8,45.0,30.25,SSW,200,4.0,9.0,82,0.00,,,0.00,0,weatherlink.com 1.10,2013-02-23 03:06:00,
2013-02-22 19:21:00,49.7,44.0,30.25,West,280,2.0,10.0,82,0.00,,,0.00,0,weatherlink.com 1.10,2013-02-23 03:21:00,
2013-02-22 19:36:00,49.8,45.0,30.25,West,274,10.0,13.0,82,0.00,,,0.00,0,weatherlink.com 1.10,2013-02-23 03:36:00,
2013-02-22 19:51:00,49.8,45.0,30.25,SW,216,8.0,9.0,82,0.00,,,0.00,0,weatherlink.com 1.10,2013-02-23 03:51:00,
2013-02-22 20:06:00,49.9,44.0,30.25,West,272,4.0,12.0,81,0.00,,,0.00,0,weatherlink.com 1.10,2013-02-23 04:06:00,
2013-02-22 20:21:00,50.0,44.0,30.24,West,279,2.0,9.0,81,0.00,,,0.00,0,weatherlink.com 1.10,2013-02-23 04:21:00,
2013-02-22 20:36:00,49.8,45.0,30.24,SSW,203,5.0,10.0,82,0.00,,,0.00,0,weatherlink.com 1.10,2013-02-23 04:36:00,
2013-02-22 20:51:00,49.6,45.0,30.24,SSW,210,9.0,9.0,83,0.00,,,0.00,0,weatherlink.com 1.10,2013-02-23 04:51:00,
2013-02-22 21:06:00,49.5,45.0,30.25,SW,231,10.0,14.0,84,0.00,,,0.00,0,weatherlink.com 1.10,2013-02-23 05:06:00,
2013-02-22 21:21:00,49.4,45.0,30.26,SSW,208,5.0,11.0,84,0.00,,,0.00,0,weatherlink.com 1.10,2013-02-23 05:21:00,
2013-02-22 21:36:00,49.4,45.0,30.27,WSW,254,0.0,8.0,85,0.00,,,0.00,0,weatherlink.com 1.10,2013-02-23 05:36:00,
2013-02-22 21:51:00,49.4,45.0,30.27,West,262,9.0,12.0,85,0.00,,,0.00,0,weatherlink.com 1.10,2013-02-23 05:51:00,
2013-02-22 22:06:00,49.7,45.0,30.27,West,264,3.0,9.0,85,0.00,,,0.00,0,weatherlink.com 1.10,2013-02-23 06:06:00,
2013-02-22 22:36:00,50.2,45.0,30.27,NW,322,1.0,7.0,82,0.00,,,0.00,0,weatherlink.com 1.10,2013-02-23 06:36:00,
2013-02-22 22:51:00,50.1,45.0,30.28,WSW,243,6.0,8.0,82,0.00,,,0.00,0,weatherlink.com 1.10,2013-02-23 06:51:00,
2013-02-22 23:06:00,50.2,45.0,30.28,NW,316,0.0,13.0,82,0.00,,,0.00,0,weatherlink.com 1.10,2013-02-23 07:06:00,
2013-02-22 23:21:00,50.1,44.0,30.28,SW,220,0.0,6.0,80,0.00,,,0.00,0,weatherlink.com 1.10,2013-02-23 07:21:00,
2013-02-22 23:36:00,50.2,44.0,30.28,WNW,299,4.0,8.0,80,0.00,,,0.00,0,weatherlink.com 1.10,2013-02-23 07:36:00,
2013-02-22 23:51:00,50.3,44.0,30.27,West,262,0.0,6.0,78,0.00,,,0.00,0,weatherlink.com 1.10,2013-02-23 07:51:00,